This is the latest recevied weather packets stored in our database for station/object KC2TER. If no packets are shown the sender has not sent any weather packets the latest 10 day(s).
| Time | Temp. | Humidity | Pressure | Rain* | Wind** | Luminosity | Snow |
|---|---|---|---|---|---|---|---|
| 1778096937 | 18.89° C | 82% | 1007.5 hPa | 0 mm | - | 143 W/m² | - |
| 1778096634 | 18.89° C | 83% | 1007.4 hPa | 0 mm | - | 84 W/m² | - |
| 1778096332 | 18.89° C | 84% | 1007.7 hPa | 0 mm | - | 66 W/m² | - |
| 1778096028 | 18.33° C | 84% | 1007.4 hPa | 1.78 mm | - | 100 W/m² | - |
| 1778095725 | 18.33° C | 84% | 1007.5 hPa | 1.78 mm | - | 107 W/m² | - |
| 1778095422 | 18.33° C | 86% | 1007.6 hPa | 0 mm | - | 66 W/m² | - |
| 1778095118 | 17.78° C | 87% | 1007.6 hPa | 0 mm | - | 52 W/m² | - |
| 1778094815 | 18.33° C | 86% | 1007.6 hPa | 0 mm | - | 52 W/m² | - |
| 1778094512 | 17.78° C | 88% | 1007.6 hPa | 0 mm | - | 40 W/m² | - |
| 1778094208 | 17.78° C | 91% | 1007.7 hPa | 0 mm | - | 45 W/m² | - |
| 1778093905 | 17.78° C | 89% | 1007.9 hPa | 0 mm | - | 33 W/m² | - |
| 1778093602 | 18.33° C | 87% | 1007.8 hPa | 0 mm | - | 30 W/m² | - |
| 1778093299 | 18.33° C | 88% | 1007.8 hPa | 0 mm | - | 62 W/m² | - |
| 1778092997 | 18.89° C | 85% | 1007.6 hPa | 0 mm | - | 62 W/m² | - |
| 1778092694 | 18.89° C | 84% | 1007.5 hPa | 0 mm | - | 106 W/m² | - |
| 1778092389 | 18.89° C | 83% | 1007.5 hPa | 0 mm | - | 133 W/m² | - |
| 1778092086 | 18.89° C | 84% | 1007.8 hPa | 0 mm | - | 202 W/m² | - |
| 1778091783 | 18.33° C | 85% | 1007.6 hPa | 0 mm | - | 216 W/m² | - |
| 1778091481 | 18.33° C | 85% | 1007.8 hPa | 0 mm | - | 199 W/m² | - |
| 1778091179 | 18.33° C | 85% | 1007.7 hPa | 0 mm | - | 229 W/m² | - |
| 1778090876 | 18.89° C | 85% | 1008 hPa | 0 mm | - | 204 W/m² | - |
| 1778090571 | 18.33° C | 86% | 1007.9 hPa | 0 mm | - | 291 W/m² | - |
| 1778090268 | 17.78° C | 87% | 1008.1 hPa | 0 mm | - | 232 W/m² | - |
| 1778089965 | 17.78° C | 87% | 1008.3 hPa | 0 mm | - | 147 W/m² | - |
| 1778089662 | 17.78° C | 88% | 1008.1 hPa | 0 mm | - | 189 W/m² | - |
* Rain latest hour (hover to see other rain measurements)
** Current wind speed in m/s (hover to see current wind gust speed)